{"data":{"norad_id":66894,"intl_designator":"2025-283S","name":"STARLINK-35718","alt_names":[],"object_type":"PAYLOAD","status":"ACTIVE","operator":null,"country":"US","launch_date":"2025-12-04","launch_site_code":"AFWTR","launch_vehicle":null,"mission":null,"orbit_class":"UNKNOWN","rcs_meters":null,"size_class":null,"mass_kg":null,"dimensions":null,"purposes":["comms"],"wikipedia_slug":null,"has_3d_model":false,"image_url":null,"decayed_at":null,"tle_current":{"epoch":"2026-09-20T07:12:53.884224Z","epoch_age_seconds":101925,"freshness":"FRESH","line1":"1 66894U 25283S   26263.30062366  .00019151  00000+0  57628-3 0  9995","line2":"2 66894  53.1583 198.5382 0001399  93.1056 267.0107 15.34410889 45658","mean_motion":15.34410889,"eccentricity":0.0001399,"inclination_deg":53.1583,"raan_deg":198.5382,"arg_perigee_deg":93.1056,"mean_anomaly_deg":267.0107,"bstar":0.00057628,"rev_number":4565,"period_min":93.84709208747,"perigee_km":461.7138469739,"apogee_km":463.6279050176,"semimajor_km":6840.8078759957,"source":"CELESTRAK","updated_at":"2026-09-21T09:00:36.052739Z"}}}